Terminal Aerodrome Forecast
Issued by NWS Mt. Holly, NJ

Home | Current Version | Previous Version | Text Only | Print | Product List | Glossary On
Versions: 1 2 3 4 5 6 7 8 9 10 11 12 13 14 15 16 17 18 19 20 21 22 23 24 25 26 27 28 29 30 31 32 33 34 35 36 37 38 39 40 41 42 43 44 45 46
000
FTAK31 PANC 230603 AAA
TAFABE
TAF AMD
PABE 230603Z 2306/2406 27006KT P6SM VCSH SCT015 OVC025
      TEMPO 2306/2309 BKN015
     FM230900 28008KT P6SM VCSH OVC015
     FM231200 30008KT 3SM BR BKN008
     FM231800 25009KT P6SM SCT008 OVC015
     FM232200 24014KT P6SM -RA BKN015=

USA.gov is the U.S. government's official web portal to all federal, state and local government web resources and services.